SWR9ES EDDL-LSZH

Flight info

Callsign SWR9ES
Flight time 0h 45m
Altitude 27000
Route DODEN7Z/05R DODEN Y852 TUSUK DCT ULNOK L607 SUNEG T721 RILAX
Aircraft A321/M-SDE3FGHIRWY/LB1

Departure

Time 2026-05-06 07:45
Airport Düsseldorf Airport (EDDL)

Arrival

Time 2026-05-06 08:30
Airport Zürich Airport (LSZH)
Time Latitude Longitude Altitude Speed Heading
2026-05-06 07:26 51.28156 6.76729 130 ft 0 kts 275°
2026-05-06 07:34 51.28156 6.76746 125 ft 2 kts 276°
2026-05-06 07:34 51.28153 6.76772 129 ft 2 kts 284°
2026-05-06 07:34 51.28149 6.76797 126 ft 2 kts 296°
2026-05-06 07:35 51.28140 6.76819 126 ft 2 kts 336°
2026-05-06 07:35 51.28123 6.76823 134 ft 2 kts 20°
2026-05-06 07:35 51.28109 6.76815 126 ft 1 kts 16°
2026-05-06 07:38 51.28135 6.76826 127 ft 6 kts 14°
2026-05-06 07:39 51.28184 6.76838 130 ft 10 kts
2026-05-06 07:39 51.28249 6.76850 130 ft 8 kts
2026-05-06 07:39 51.28284 6.76832 127 ft 4 kts 328°
2026-05-06 07:39 51.28314 6.76795 128 ft 9 kts 322°
2026-05-06 07:40 51.28377 6.76718 129 ft 11 kts 322°
2026-05-06 07:40 51.28413 6.76644 129 ft 8 kts 272°
2026-05-06 07:40 51.28370 6.76530 127 ft 15 kts 232°
2026-05-06 07:40 51.28310 6.76402 129 ft 13 kts 233°
2026-05-06 07:41 51.28263 6.76304 128 ft 9 kts 233°
2026-05-06 07:41 51.28232 6.76238 129 ft 9 kts 233°
2026-05-06 07:41 51.28175 6.76117 129 ft 18 kts 232°
2026-05-06 07:41 51.28107 6.75974 131 ft 14 kts 233°
2026-05-06 07:42 51.28058 6.75870 129 ft 10 kts 233°
2026-05-06 07:42 51.28027 6.75804 128 ft 6 kts 233°
2026-05-06 07:42 51.27984 6.75713 127 ft 16 kts 233°
2026-05-06 07:42 51.27898 6.75540 129 ft 20 kts 233°
2026-05-06 07:43 51.27839 6.75391 127 ft 11 kts 262°
2026-05-06 07:43 51.27869 6.75317 129 ft 5 kts 342°
2026-05-06 07:43 51.27891 6.75308 126 ft 2 kts 345°
2026-05-06 07:43 51.27925 6.75283 125 ft 12 kts 334°
2026-05-06 07:44 51.27992 6.75268 124 ft 4 kts 35°
2026-05-06 07:44 51.27995 6.75275 124 ft 0 kts 52°
2026-05-06 07:44 51.28105 6.75503 126 ft 64 kts 52°
2026-05-06 07:44 51.28525 6.76379 125 ft 129 kts 53°
2026-05-06 07:45 51.29173 6.77706 281 ft 164 kts 50°
2026-05-06 07:45 51.29850 6.79142 1059 ft 161 kts 51°
2026-05-06 07:45 51.30514 6.80560 1710 ft 164 kts 52°
2026-05-06 07:45 51.31241 6.82100 1893 ft 183 kts 52°
2026-05-06 07:46 51.32041 6.83790 2037 ft 201 kts 52°
2026-05-06 07:46 51.32935 6.85676 2155 ft 225 kts 53°
2026-05-06 07:46 51.33923 6.87799 2499 ft 246 kts 54°
2026-05-06 07:46 51.34783 6.90220 3128 ft 256 kts 70°
2026-05-06 07:47 51.35150 6.93034 3853 ft 263 kts 88°
2026-05-06 07:47 51.34987 6.95955 4637 ft 267 kts 99°
2026-05-06 07:47 51.34677 6.98900 5413 ft 270 kts 99°
2026-05-06 07:47 51.34372 7.01878 6234 ft 273 kts 99°
2026-05-06 07:48 51.34065 7.04893 6988 ft 277 kts 100°
2026-05-06 07:48 51.33753 7.07959 7786 ft 282 kts 101°
2026-05-06 07:48 51.33437 7.11094 8590 ft 287 kts 101°
2026-05-06 07:48 51.33110 7.14259 9336 ft 291 kts 104°
2026-05-06 07:49 51.32449 7.17328 9990 ft 293 kts 119°
2026-05-06 07:49 51.31311 7.20025 10662 ft 295 kts 134°
2026-05-06 07:49 51.29828 7.22412 10996 ft 313 kts 137°
2026-05-06 07:49 51.28211 7.24939 11118 ft 335 kts 137°
2026-05-06 07:50 51.26492 7.27622 11248 ft 356 kts 137°
2026-05-06 07:50 51.24675 7.30471 11423 ft 374 kts 137°
2026-05-06 07:50 51.23682 7.32033 11644 ft 378 kts 137°
2026-05-06 07:50 51.21845 7.34929 12191 ft 383 kts 137°
2026-05-06 07:51 51.19944 7.37925 12768 ft 386 kts 137°
2026-05-06 07:51 51.18023 7.40954 13335 ft 389 kts 137°
2026-05-06 07:51 51.16090 7.44003 13903 ft 392 kts 137°
2026-05-06 07:51 51.14137 7.47060 14469 ft 395 kts 137°
2026-05-06 07:52 51.12157 7.50112 15039 ft 398 kts 138°
2026-05-06 07:52 51.10154 7.53166 15580 ft 400 kts 138°
2026-05-06 07:52 51.08136 7.56229 16096 ft 402 kts 138°
2026-05-06 07:52 51.06109 7.59300 16604 ft 404 kts 138°
2026-05-06 07:53 51.04063 7.62401 17111 ft 407 kts 138°
2026-05-06 07:53 51.02011 7.65511 17610 ft 409 kts 138°
2026-05-06 07:53 50.99950 7.68635 18112 ft 412 kts 138°
2026-05-06 07:53 50.97868 7.71787 18541 ft 414 kts 139°
2026-05-06 07:54 50.95629 7.74649 18949 ft 414 kts 148°
2026-05-06 07:54 50.93187 7.77091 19367 ft 416 kts 150°
2026-05-06 07:54 50.90726 7.79512 19793 ft 418 kts 150°
2026-05-06 07:54 50.88242 7.81950 20217 ft 420 kts 150°
2026-05-06 07:55 50.84935 7.85192 20786 ft 423 kts 150°
2026-05-06 07:55 50.83246 7.86845 21068 ft 425 kts 150°
2026-05-06 07:55 50.80720 7.89315 21505 ft 427 kts 150°
2026-05-06 07:55 50.78188 7.91794 21937 ft 429 kts 150°
2026-05-06 07:56 50.75641 7.94288 22365 ft 432 kts 150°
2026-05-06 07:56 50.73084 7.96791 22791 ft 434 kts 150°
2026-05-06 07:56 50.70511 7.99307 23202 ft 436 kts 150°
2026-05-06 07:56 50.67930 8.01832 23553 ft 438 kts 150°
2026-05-06 07:57 50.65326 8.04379 23877 ft 441 kts 150°
2026-05-06 07:57 50.62685 8.06822 24200 ft 441 kts 156°
2026-05-06 07:57 50.59855 8.08639 24506 ft 440 kts 165°
2026-05-06 07:57 50.56873 8.09715 24826 ft 439 kts 174°
2026-05-06 07:58 50.53840 8.10174 25145 ft 439 kts 177°
2026-05-06 07:58 50.50786 8.10567 25490 ft 441 kts 177°
2026-05-06 07:58 50.47720 8.10965 25806 ft 442 kts 178°
2026-05-06 07:58 50.44645 8.11369 26139 ft 444 kts 178°
2026-05-06 07:59 50.41563 8.11775 26471 ft 445 kts 178°
2026-05-06 07:59 50.38473 8.12182 26729 ft 444 kts 178°
2026-05-06 07:59 50.35437 8.12583 26769 ft 435 kts 178°
2026-05-06 07:59 50.32427 8.12978 26776 ft 431 kts 178°
2026-05-06 08:00 50.29442 8.13370 26778 ft 430 kts 178°
2026-05-06 08:00 50.26499 8.13755 26773 ft 429 kts 178°
2026-05-06 08:00 50.23533 8.14138 26788 ft 428 kts 178°
2026-05-06 08:00 50.20556 8.14520 26792 ft 428 kts 178°
2026-05-06 08:01 50.17589 8.14901 26798 ft 428 kts 178°
2026-05-06 08:01 50.14642 8.15691 26794 ft 432 kts 169°
2026-05-06 08:01 50.11797 8.17253 26792 ft 437 kts 159°
2026-05-06 08:01 50.09112 8.19536 26802 ft 441 kts 153°
2026-05-06 08:02 50.06489 8.21994 26792 ft 441 kts 153°
2026-05-06 08:02 50.03851 8.24443 26792 ft 441 kts 154°
2026-05-06 08:02 50.01214 8.26875 26793 ft 441 kts 154°
2026-05-06 08:02 49.98578 8.29300 26785 ft 440 kts 154°
2026-05-06 08:03 49.95945 8.31718 26787 ft 440 kts 154°
2026-05-06 08:03 49.93310 8.34139 26781 ft 440 kts 154°
2026-05-06 08:03 49.90678 8.36555 26778 ft 440 kts 154°
2026-05-06 08:03 49.88046 8.38976 26777 ft 440 kts 154°
2026-05-06 08:04 49.85450 8.41471 26772 ft 442 kts 149°
2026-05-06 08:04 49.83074 8.44510 26766 ft 447 kts 141°
2026-05-06 08:04 49.80810 8.47848 26765 ft 447 kts 141°
2026-05-06 08:04 49.78558 8.51145 26775 ft 447 kts 141°
2026-05-06 08:05 49.76292 8.54443 26779 ft 447 kts 141°
2026-05-06 08:05 49.73925 8.57488 26791 ft 441 kts 150°
2026-05-06 08:05 49.71297 8.59888 26798 ft 435 kts 159°
2026-05-06 08:05 49.68507 8.61598 26796 ft 430 kts 167°
2026-05-06 08:06 49.65612 8.62628 26803 ft 425 kts 173°
2026-05-06 08:06 49.62701 8.63432 26800 ft 425 kts 173°
2026-05-06 08:06 49.59781 8.64245 26803 ft 425 kts 173°
2026-05-06 08:06 49.56871 8.65057 26804 ft 425 kts 173°
2026-05-06 08:07 49.53962 8.65864 26806 ft 425 kts 173°
2026-05-06 08:07 49.51060 8.66665 26807 ft 425 kts 173°
2026-05-06 08:07 49.48151 8.67488 26809 ft 426 kts 171°
2026-05-06 08:07 49.45299 8.68802 26807 ft 430 kts 162°
2026-05-06 08:08 49.42558 8.70674 26801 ft 432 kts 160°
2026-05-06 08:08 49.39827 8.72588 26800 ft 432 kts 160°
2026-05-06 08:08 49.37097 8.74495 26796 ft 431 kts 160°
2026-05-06 08:08 49.34361 8.76399 26792 ft 431 kts 160°
2026-05-06 08:09 49.31630 8.78292 26792 ft 431 kts 160°
2026-05-06 08:09 49.28891 8.80185 26789 ft 431 kts 160°
2026-05-06 08:09 49.26161 8.82068 26786 ft 431 kts 160°
2026-05-06 08:09 49.23412 8.83852 26782 ft 428 kts 165°
2026-05-06 08:10 49.20547 8.84986 26780 ft 423 kts 174°
2026-05-06 08:10 49.17628 8.85377 26781 ft 419 kts 183°
2026-05-06 08:10 49.14749 8.85041 26781 ft 415 kts 192°
2026-05-06 08:10 49.11906 8.84259 26782 ft 415 kts 192°
2026-05-06 08:11 49.09065 8.83473 26786 ft 415 kts 192°
2026-05-06 08:11 49.06228 8.82695 26785 ft 415 kts 192°
2026-05-06 08:11 49.03396 8.81921 26785 ft 414 kts 192°
2026-05-06 08:11 49.00547 8.81147 26785 ft 414 kts 192°
2026-05-06 08:12 48.97706 8.80380 26783 ft 414 kts 192°
2026-05-06 08:12 48.94869 8.79617 26781 ft 414 kts 192°
2026-05-06 08:12 48.92031 8.78855 26784 ft 414 kts 192°
2026-05-06 08:12 48.89202 8.78092 26779 ft 414 kts 192°
2026-05-06 08:13 48.86357 8.77323 26781 ft 414 kts 192°
2026-05-06 08:13 48.83523 8.76557 26784 ft 414 kts 192°
2026-05-06 08:13 48.80690 8.75793 26719 ft 414 kts 192°
2026-05-06 08:13 48.77850 8.75029 26589 ft 414 kts 191°
2026-05-06 08:14 48.75011 8.74270 26456 ft 415 kts 191°
2026-05-06 08:14 48.72166 8.73511 26267 ft 415 kts 191°
2026-05-06 08:14 48.69353 8.72763 25689 ft 410 kts 191°
2026-05-06 08:14 48.66544 8.72016 25074 ft 407 kts 191°
2026-05-06 08:15 48.63775 8.71279 24451 ft 404 kts 191°
2026-05-06 08:15 48.60999 8.70536 23706 ft 405 kts 191°
2026-05-06 08:15 48.58211 8.69791 22816 ft 408 kts 191°
2026-05-06 08:15 48.55420 8.69053 22142 ft 405 kts 191°
2026-05-06 08:16 48.52656 8.68323 21503 ft 402 kts 191°
2026-05-06 08:16 48.49907 8.67595 20863 ft 400 kts 191°
2026-05-06 08:16 48.47173 8.66871 20229 ft 398 kts 191°
2026-05-06 08:16 48.44455 8.66149 19610 ft 396 kts 191°
2026-05-06 08:17 48.41747 8.65432 18997 ft 394 kts 191°
2026-05-06 08:17 48.39048 8.64720 18394 ft 393 kts 191°
2026-05-06 08:17 48.36365 8.63995 17724 ft 392 kts 191°
2026-05-06 08:17 48.33695 8.63217 17091 ft 389 kts 192°
2026-05-06 08:18 48.31057 8.62410 16485 ft 385 kts 192°
2026-05-06 08:18 48.28440 8.61593 15890 ft 382 kts 192°
2026-05-06 08:18 48.25848 8.60786 15318 ft 379 kts 192°
2026-05-06 08:18 48.23276 8.59996 14777 ft 375 kts 191°
2026-05-06 08:19 48.20731 8.59226 14237 ft 372 kts 191°
2026-05-06 08:19 48.18205 8.58465 13718 ft 369 kts 191°
2026-05-06 08:19 48.15698 8.57716 13159 ft 365 kts 191°
2026-05-06 08:19 48.13218 8.56980 12669 ft 361 kts 191°
2026-05-06 08:20 48.10765 8.56254 12172 ft 358 kts 191°
2026-05-06 08:20 48.08329 8.55531 11682 ft 356 kts 191°
2026-05-06 08:20 48.05910 8.54808 11183 ft 353 kts 191°
2026-05-06 08:20 48.03537 8.54098 10991 ft 341 kts 191°
2026-05-06 08:21 48.01258 8.53419 10863 ft 328 kts 191°
2026-05-06 08:21 47.99069 8.52770 10735 ft 315 kts 191°
2026-05-06 08:21 47.96957 8.52145 10617 ft 303 kts 191°
2026-05-06 08:21 47.94927 8.51545 10493 ft 292 kts 191°
2026-05-06 08:22 47.92970 8.50965 10319 ft 283 kts 191°
2026-05-06 08:22 47.91059 8.50392 10118 ft 279 kts 191°
2026-05-06 08:22 47.89164 8.49820 9880 ft 278 kts 191°
2026-05-06 08:22 47.87278 8.49248 9700 ft 274 kts 191°
2026-05-06 08:23 47.85422 8.48683 9566 ft 269 kts 191°
2026-05-06 08:23 47.83610 8.48132 9429 ft 264 kts 191°
2026-05-06 08:23 47.81823 8.47590 9279 ft 261 kts 191°
2026-05-06 08:23 47.80024 8.47046 8841 ft 268 kts 191°
2026-05-06 08:24 47.78177 8.46485 8368 ft 273 kts 191°
2026-05-06 08:24 47.76301 8.45917 7861 ft 277 kts 191°
2026-05-06 08:24 47.74402 8.45342 7659 ft 270 kts 191°
2026-05-06 08:24 47.72619 8.44802 7530 ft 261 kts 191°
2026-05-06 08:25 47.70874 8.44269 7400 ft 251 kts 193°
2026-05-06 08:25 47.69258 8.43393 7175 ft 246 kts 208°
2026-05-06 08:25 47.67857 8.41936 6867 ft 246 kts 223°
2026-05-06 08:25 47.66686 8.40100 6549 ft 245 kts 227°
2026-05-06 08:26 47.65530 8.38246 6171 ft 244 kts 226°
2026-05-06 08:26 47.64366 8.36428 5733 ft 243 kts 221°
2026-05-06 08:26 47.62877 8.35352 5427 ft 240 kts 186°
2026-05-06 08:26 47.61263 8.35805 5043 ft 242 kts 149°
2026-05-06 08:27 47.59956 8.37395 4647 ft 246 kts 136°
2026-05-06 08:27 47.58712 8.39185 4276 ft 250 kts 136°
2026-05-06 08:27 47.57443 8.40958 3930 ft 251 kts 137°
2026-05-06 08:27 47.56179 8.42693 3597 ft 245 kts 137°
2026-05-06 08:28 47.54949 8.44379 3265 ft 238 kts 137°
2026-05-06 08:28 47.53760 8.46008 2961 ft 226 kts 137°
2026-05-06 08:28 47.52652 8.47526 2684 ft 207 kts 137°
2026-05-06 08:28 47.51645 8.48905 2413 ft 187 kts 137°
2026-05-06 08:29 47.51019 8.49762 2214 ft 176 kts 137°
2026-05-06 08:29 47.50152 8.50948 1977 ft 165 kts 137°
2026-05-06 08:29 47.49316 8.52091 1751 ft 161 kts 137°
2026-05-06 08:29 47.48506 8.53201 1530 ft 157 kts 137°
2026-05-06 08:30 47.47718 8.54281 1396 ft 145 kts 136°
2026-05-06 08:30 47.47096 8.55129 1398 ft 95 kts 137°
2026-05-06 08:30 47.46760 8.55587 1403 ft 39 kts 140°
2026-05-06 08:30 47.46586 8.55819 1400 ft 26 kts 140°
2026-05-06 08:31 47.46439 8.55934 1402 ft 18 kts 163°
2026-05-06 08:31 47.46362 8.55963 1406 ft 7 kts 167°
2026-05-06 08:31 47.46319 8.55976 1399 ft 8 kts 169°
2026-05-06 08:31 47.46249 8.55998 1401 ft 13 kts 167°
2026-05-06 08:32 47.46160 8.55999 1399 ft 12 kts 185°
2026-05-06 08:32 47.46087 8.55989 1400 ft 9 kts 186°
2026-05-06 08:32 47.46022 8.55979 1400 ft 10 kts 185°
2026-05-06 08:32 47.45951 8.55960 1401 ft 11 kts 198°
2026-05-06 08:33 47.45874 8.55919 1408 ft 14 kts 200°
2026-05-06 08:33 47.45776 8.55877 1400 ft 14 kts 187°
2026-05-06 08:33 47.45687 8.55863 1402 ft 10 kts 186°
2026-05-06 08:33 47.45643 8.55810 1399 ft 9 kts 263°
2026-05-06 08:34 47.45650 8.55701 1399 ft 15 kts 276°
2026-05-06 08:34 47.45671 8.55385 1397 ft 10 kts 264°
2026-05-06 08:34 47.45615 8.55345 1399 ft 13 kts 164°
2026-05-06 08:35 47.45518 8.55410 1397 ft 17 kts 155°
2026-05-06 08:35 47.45417 8.55480 1402 ft 16 kts 155°
2026-05-06 08:35 47.45321 8.55547 1397 ft 16 kts 155°
2026-05-06 08:35 47.45220 8.55590 1405 ft 14 kts 160°
2026-05-06 08:36 47.45134 8.55648 1402 ft 13 kts 155°
2026-05-06 08:36 47.45057 8.55702 1398 ft 12 kts 155°
2026-05-06 08:36 47.44987 8.55751 1400 ft 10 kts 154°
2026-05-06 08:36 47.44948 8.55837 1398 ft 11 kts 94°
2026-05-06 08:37 47.44930 8.55937 1401 ft 9 kts 133°
2026-05-06 08:37 47.44891 8.55926 1405 ft 6 kts 236°
2026-05-06 08:37 47.44874 8.55883 1403 ft 4 kts 244°
2026-05-06 08:37 47.44864 8.55850 1399 ft 3 kts 245°
2026-05-06 08:38 47.44863 8.55849 1398 ft 0 kts 245°